UAE2J OMDB-KMCO

Flight info

Callsign UAE2J
Flight time N/A
Altitude 30000
Route DAVMO DCT OTISO L713 PAXER P718 SOMAD B143 KRS A240 KERUL/K0906F300 DCT AKT DCT ATNUR L864 GEKPA L736 OLOPI N50 NUDKO T561 ODATI P145 ATLUM T561 LEDUN/N0483F320 DCT TABEV DCT 67N000E/M081F300 67N010W 6630N02000W 65N030W 62N040W 57N050W DCT NEEKO/N0468F340 DCT 49N060W DCT ALLEX DCT EMJAY Q167 KALDA Q97 SAWED
Aircraft B77W/H-SDE1E2E3FGHIJ2J3J4J5M1RWXY/LB1D1

Departure

Time 2026-04-25 05:46
Airport Dubai International Airport (OMDB)

Arrival

Time N/A
Airport Orlando International Airport (KMCO)
Time Latitude Longitude Altitude Speed Heading
2026-04-25 05:02 25.25237 55.35644 26 ft 0 kts 211°
2026-04-25 05:32 25.25248 55.35651 31 ft 4 kts 211°
2026-04-25 05:32 25.25271 55.35667 31 ft 4 kts 211°
2026-04-25 05:33 25.25293 55.35681 31 ft 2 kts 211°
2026-04-25 05:33 25.25311 55.35697 31 ft 4 kts 241°
2026-04-25 05:33 25.25316 55.35723 31 ft 4 kts 287°
2026-04-25 05:33 25.25305 55.35748 31 ft 4 kts 302°
2026-04-25 05:34 25.25291 55.35772 31 ft 3 kts 302°
2026-04-25 05:34 25.25290 55.35775 31 ft 0 kts 302°
2026-04-25 05:36 25.25290 55.35774 31 ft 0 kts 302°
2026-04-25 05:36 25.25302 55.35753 31 ft 6 kts 302°
2026-04-25 05:36 25.25326 55.35710 31 ft 7 kts 302°
2026-04-25 05:36 25.25353 55.35662 30 ft 10 kts 302°
2026-04-25 05:37 25.25399 55.35580 28 ft 13 kts 302°
2026-04-25 05:37 25.25446 55.35497 29 ft 13 kts 302°
2026-04-25 05:37 25.25495 55.35409 27 ft 13 kts 302°
2026-04-25 05:37 25.25544 55.35322 29 ft 13 kts 302°
2026-04-25 05:38 25.25576 55.35264 30 ft 13 kts 302°
2026-04-25 05:38 25.25652 55.35162 30 ft 13 kts 346°
2026-04-25 05:38 25.25739 55.35197 29 ft 13 kts 27°
2026-04-25 05:38 25.25794 55.35232 29 ft 14 kts 30°
2026-04-25 05:39 25.25879 55.35288 29 ft 14 kts 31°
2026-04-25 05:39 25.25961 55.35348 31 ft 14 kts 45°
2026-04-25 05:39 25.26006 55.35472 28 ft 21 kts 88°
2026-04-25 05:39 25.25951 55.35622 26 ft 21 kts 121°
2026-04-25 05:40 25.25875 55.35760 30 ft 21 kts 121°
2026-04-25 05:40 25.25797 55.35900 27 ft 21 kts 122°
2026-04-25 05:40 25.25733 55.36014 27 ft 21 kts 122°
2026-04-25 05:40 25.25662 55.36139 27 ft 21 kts 122°
2026-04-25 05:41 25.25583 55.36278 27 ft 21 kts 122°
2026-04-25 05:41 25.25505 55.36418 27 ft 21 kts 122°
2026-04-25 05:41 25.25433 55.36544 27 ft 21 kts 122°
2026-04-25 05:41 25.25357 55.36681 29 ft 21 kts 122°
2026-04-25 05:42 25.25279 55.36821 27 ft 21 kts 122°
2026-04-25 05:42 25.25201 55.36958 27 ft 21 kts 122°
2026-04-25 05:42 25.25123 55.37098 28 ft 21 kts 122°
2026-04-25 05:42 25.25044 55.37237 28 ft 21 kts 122°
2026-04-25 05:43 25.24966 55.37377 28 ft 21 kts 122°
2026-04-25 05:43 25.24887 55.37516 28 ft 21 kts 122°
2026-04-25 05:43 25.24808 55.37655 27 ft 21 kts 122°
2026-04-25 05:43 25.24731 55.37793 27 ft 21 kts 122°
2026-04-25 05:44 25.24652 55.37933 27 ft 21 kts 122°
2026-04-25 05:44 25.24574 55.38071 28 ft 20 kts 122°
2026-04-25 05:44 25.24518 55.38172 27 ft 12 kts 122°
2026-04-25 05:44 25.24511 55.38254 27 ft 12 kts 54°
2026-04-25 05:45 25.24578 55.38305 27 ft 12 kts 32°
2026-04-25 05:45 25.24652 55.38301 27 ft 11 kts 316°
2026-04-25 05:45 25.24682 55.38249 27 ft 11 kts 301°
2026-04-25 05:45 25.24761 55.38108 31 ft 43 kts 301°
2026-04-25 05:46 25.25055 55.37579 32 ft 118 kts 301°
2026-04-25 05:46 25.25622 55.36558 29 ft 188 kts 301°
2026-04-25 05:46 25.26417 55.35199 151 ft 229 kts 304°
2026-04-25 05:46 25.27263 55.33760 1120 ft 219 kts 302°
2026-04-25 05:47 25.28061 55.32306 1943 ft 226 kts 301°
2026-04-25 05:47 25.28899 55.30756 2190 ft 240 kts 302°
2026-04-25 05:47 25.29610 55.29048 2494 ft 250 kts 281°
2026-04-25 05:47 25.29737 55.27126 2890 ft 255 kts 275°
2026-04-25 05:48 25.29879 55.25156 3159 ft 267 kts 276°
2026-04-25 05:48 25.30053 55.23074 3518 ft 275 kts 276°
2026-04-25 05:48 25.30228 55.20939 3994 ft 280 kts 276°
2026-04-25 05:48 25.30399 55.18800 4567 ft 281 kts 276°
2026-04-25 05:49 25.30414 55.16624 5050 ft 285 kts 267°
2026-04-25 05:49 25.30237 55.14458 5633 ft 286 kts 265°
2026-04-25 05:49 25.30027 55.12260 6249 ft 287 kts 265°
2026-04-25 05:49 25.29826 55.10065 6797 ft 288 kts 265°
2026-04-25 05:50 25.29634 55.07850 7329 ft 290 kts 265°
2026-04-25 05:50 25.29449 55.05616 7880 ft 292 kts 265°
2026-04-25 05:50 25.29272 55.03413 8397 ft 294 kts 265°
2026-04-25 05:50 25.29095 55.01149 8920 ft 296 kts 265°
2026-04-25 05:51 25.28918 54.98866 9423 ft 299 kts 264°
2026-04-25 05:51 25.28739 54.96566 9928 ft 301 kts 264°
2026-04-25 05:51 25.28566 54.94258 10265 ft 311 kts 266°
2026-04-25 05:51 25.28485 54.92073 10360 ft 326 kts 268°
2026-04-25 05:52 25.28431 54.89543 10503 ft 342 kts 268°
2026-04-25 05:52 25.28366 54.86854 10637 ft 358 kts 268°
2026-04-25 05:52 25.28291 54.84082 10892 ft 370 kts 268°
2026-04-25 05:52 25.28209 54.81209 11283 ft 377 kts 267°
2026-04-25 05:53 25.28123 54.78292 11790 ft 381 kts 267°
2026-04-25 05:53 25.28043 54.75353 12363 ft 382 kts 269°
2026-04-25 05:53 25.28358 54.72424 12697 ft 388 kts 284°
2026-04-25 05:53 25.29148 54.69581 13164 ft 392 kts 286°
2026-04-25 05:54 25.29958 54.66693 13740 ft 394 kts 285°
2026-04-25 05:54 25.30737 54.63772 14222 ft 396 kts 285°